Tracking 33159 objects as of 7-Feb-2026
HD Live streaming from Space Station
objects crossing your sky now

FARADAY_PHOENIX

Track FARADAY_PHOENIX now!
10-day predictions


NORAD ID: 48924
Int'l Code: 2021-059AX
Perigee: 399.8 km
Apogee: 408.6 km
Inclination: 97.7 °
Period: 92.5 minutes
Semi major axis: 6775 km
RCS: Unknown
Launch date: June 30, 2021
Source: United Kingdom (UK)
Launch site: AIR FORCE EASTERN TEST RANGE (AFETR)
Your satellite tracking list
Your tracking list is empty




NASA's NSSDC Master Catalog

Two Line Element Set (TLE):
1 48924U 21059AX  26037.29678299  .00062517  00000-0  86985-3 0  9994
2 48924  97.6904 223.2493 0006529  79.9612 280.2378 15.56745048257172
Source of the keplerian elements: AFSPC